KOSETICE Weather Reports


time (UTC)temp
C
wind
direction
speed
KPH
gust
KPH
rain 1hr
cm
rain 24hr
cm
rain mn
cm
humidity
%
barometer
mb
20260506141942 20 130 11.3 0.0 0.00 0.00 0.00 42
20260506131942 20 40 11.3 0.0 0.00 0.00 0.00 42
20260506121941 20 0 8.0 0.0 0.00 0.00 0.00 45
20260506111926 20 0 8.0 0.0 0.00 0.00 0.00 45
20260506102128 17 0 3.2 0.0 0.00 0.00 0.00 55
20260506091926 17 230 11.3 0.0 0.00 0.00 0.00 59
20260506081925 16 280 14.5 0.0 0.00 0.00 0.00 63
20260506071926 16 0 8.0 0.0 0.00 0.00 0.00 72
20260506061928 13 260 14.5 0.0 0.00 0.00 0.00 76
20260506042126 12 260 19.3 0.0 0.00 0.00 0.00 81
20260506031927 11 250 14.5 0.0 0.00 0.00 0.00 87
20260506021927 12 230 14.5 0.0 0.00 0.00 0.00 87
20260506012031 12 230 8.0 0.0 0.00 0.00 0.00 93
20260506001925 12 260 8.0 0.0 0.00 0.00 0.00 87
20260505231925 12 310 14.5 0.0 0.00 0.00 0.00 87
20260505221925 13 290 19.3 0.0 0.00 0.00 0.00 76
20260505212025 16 120 8.0 0.0 0.00 0.00 0.00 59
20260505201941 15 100 8.0 0.0 0.00 0.00 0.00 72
20260505191958 15 120 8.0 0.0 0.00 0.00 0.00 77
20260505181942 16 0 3.2 0.0 0.00 0.00 0.00 72
20260505171926 16 320 11.3 0.0 0.00 0.00 0.00 72
20260505162042 15 300 11.3 0.0 0.00 0.00 0.00 82
20260505151941 17 170 19.3 0.0 0.00 0.00 0.00 63